| time (UTC) | temp F | wind direction | speed knots | gust knots | rain 1hr in | rain 24hr in | rain mn in | humidity % | barometer mb |
| 20260906210903 | 78 | 121 | 2.6 | 6.1 | 0.00 | 0.30 | 0.30 | 78 | 1012.1 |
| 20260906210004 | 77 | 125 | 2.6 | 7.0 | 0.00 | 0.30 | 0.30 | 76 | 1012.4 |
| 20260906205403 | 78 | 114 | 2.6 | 6.1 | 0.00 | 0.30 | 0.30 | 78 | 1012.6 |
| 20260906204503 | 78 | 94 | 2.6 | 7.0 | 0.00 | 0.30 | 0.30 | 76 | 1012.6 |
| 20260906203624 | 77 | 101 | 4.3 | 7.8 | 0.00 | 0.30 | 0.30 | 78 | 1012.8 |
| 20260906202703 | 76 | 101 | 4.3 | 11.3 | 0.00 | 0.30 | 0.30 | 80 | 1013.0 |
| 20260906201803 | 76 | 119 | 5.2 | 11.3 | 0.00 | 0.30 | 0.30 | 81 | 1013.2 |
| 20260906200903 | 76 | 145 | 7.8 | 12.2 | 0.00 | 0.30 | 0.30 | 82 | 1013.5 |
| 20260906200003 | 74 | 158 | 7.0 | 11.3 | 0.00 | 0.30 | 0.30 | 86 | 1013.4 |
| 20260906195403 | 73 | 161 | 6.1 | 12.2 | 0.00 | 0.30 | 0.30 | 86 | 1013.6 |
| 20260906194524 | 72 | 155 | 7.0 | 13.0 | 0.00 | 0.30 | 0.30 | 91 | 1014.1 |
| 20260906193603 | 70 | 157 | 7.0 | 18.2 | 0.00 | 0.30 | 0.30 | 90 | 1014.3 |
| 20260906192703 | 70 | 158 | 9.6 | 19.1 | 0.01 | 0.30 | 0.30 | 89 | 1014.6 |
| 20260906191803 | 72 | 146 | 7.0 | 19.1 | 0.02 | 0.30 | 0.30 | 91 | 1015.0 |
| 20260906190924 | 73 | 125 | 5.2 | 9.6 | 0.13 | 0.30 | 0.30 | 94 | 1014.2 |
| 20260906190003 | 73 | 106 | 6.1 | 10.4 | 0.24 | 0.30 | 0.30 | 95 | 1014.1 |
| 20260906185403 | 73 | 86 | 3.5 | 7.8 | 0.28 | 0.30 | 0.30 | 95 | 1013.4 |
| 20260906184503 | 72 | 63 | 4.3 | 9.6 | 0.30 | 0.30 | 0.30 | 94 | 1013.5 |
| 20260906183604 | 71 | 359 | 3.5 | 14.8 | 0.30 | 0.30 | 0.30 | 94 | 1013.5 |
| 20260906182704 | 71 | 26 | 3.5 | 14.8 | 0.29 | 0.29 | 0.29 | 93 | 1013.3 |
| 20260906181804 | 71 | 181 | 3.5 | 10.4 | 0.28 | 0.28 | 0.28 | 91 | 1013.9 |
| 20260906180904 | 72 | 175 | 2.6 | 11.3 | 0.17 | 0.17 | 0.17 | 90 | 1014.8 |
| 20260906180025 | 73 | 317 | 2.6 | 11.3 | 0.06 | 0.06 | 0.06 | 88 | 1014.3 |
| 20260906175404 | 74 | 330 | 6.1 | 13.9 | 0.02 | 0.02 | 0.02 | 86 | 1014.3 |
| 20260906174504 | 74 | 337 | 7.8 | 13.0 | 0.00 | 0.00 | 0.00 | 84 | 1014.0 |
| 20260906173604 | 74 | 343 | 10.4 | 16.5 | 0.00 | 0.00 | 0.00 | 83 | 1013.9 |
| 20260906172725 | 74 | 332 | 8.7 | 15.6 | 0.00 | 0.00 | 0.00 | 82 | 1014.2 |
| 20260906171804 | 75 | 332 | 8.7 | 18.2 | 0.00 | 0.00 | 0.00 | 81 | 1014.0 |
| 20260906170925 | 77 | 321 | 7.8 | 18.2 | 0.00 | 0.00 | 0.00 | 79 | 1014.0 |
| 20260906170025 | 80 | 343 | 4.3 | 11.3 | 0.00 | 0.00 | 0.00 | 76 | 1014.0 |
| 20260906165404 | 80 | 329 | 6.1 | 12.2 | 0.00 | 0.00 | 0.00 | 75 | 1013.9 |
| 20260906164525 | 83 | 340 | 3.5 | 7.0 | 0.00 | 0.00 | 0.00 | 74 | 1013.9 |
| 20260906163625 | 84 | 334 | 0.9 | 4.3 | 0.00 | 0.00 | 0.00 | 73 | 1013.5 |
| 20260906162704 | 83 | 333 | 1.7 | 4.3 | 0.00 | 0.00 | 0.00 | 73 | 1013.5 |
| 20260906161804 | 83 | 337 | 3.5 | 7.0 | 0.00 | 0.00 | 0.00 | 75 | 1013.2 |
| 20260906160904 | 83 | 341 | 2.6 | 5.2 | 0.00 | 0.00 | 0.00 | 74 | 1012.7 |
| 20260906160004 | 83 | 40 | 1.7 | 3.5 | 0.00 | 0.00 | 0.00 | 73 | 1012.6 |
| 20260906155404 | 83 | 16 | 1.7 | 4.3 | 0.00 | 0.00 | 0.00 | 75 | 1012.4 |
| 20260906154525 | 81 | 16 | 0.9 | 3.5 | 0.00 | 0.00 | 0.00 | 76 | 1012.5 |
| 20260906153604 | 80 | 33 | 0.9 | 4.3 | 0.00 | 0.00 | 0.00 | 79 | 1012.5 |
| 20260906152704 | 79 | 55 | 2.6 | 4.3 | 0.00 | 0.00 | 0.00 | 80 | 1012.5 |
| 20260906151803 | 78 | 53 | 2.6 | 6.1 | 0.00 | 0.00 | 0.00 | 82 | 1012.4 |
| 20260906150904 | 76 | 66 | 1.7 | 6.1 | 0.00 | 0.00 | 0.00 | 83 | 1012.4 |
| 20260906150004 | 75 | 18 | 0.9 | 3.5 | 0.00 | 0.00 | 0.00 | 86 | 1012.6 |
| 20260906145404 | 74 | 343 | 1.7 | 3.5 | 0.00 | 0.00 | 0.00 | 88 | 1012.6 |
| 20260906144524 | 73 | 331 | 1.7 | 4.3 | 0.00 | 0.00 | 0.00 | 89 | 1012.8 |
| 20260906143624 | 72 | 316 | 1.7 | 3.5 | 0.00 | 0.00 | 0.00 | 89 | 1012.7 |
| 20260906142703 | 71 | 296 | 0.9 | 2.6 | 0.00 | 0.00 | 0.00 | 90 | 1012.9 |
| 20260906141803 | 71 | 269 | 0.9 | 2.6 | 0.00 | 0.00 | 0.00 | 89 | 1013.0 |
| 20260906140903 | 71 | 276 | 1.7 | 5.2 | 0.00 | 0.00 | 0.00 | 89 | 1013.1 |
| 20260906140003 | 72 | 207 | 1.7 | 4.3 | 0.00 | 0.00 | 0.00 | 88 | 1013.3 |
| 20260906135424 | 72 | 193 | 1.7 | 4.3 | 0.00 | 0.00 | 0.00 | 89 | 1012.9 |
| 20260906134503 | 70 | 84 | 1.7 | 4.3 | 0.00 | 0.00 | 0.00 | 92 | 1013.0 |
| 20260906133604 | 69 | 16 | 1.7 | 4.3 | 0.00 | 0.00 | 0.00 | 93 | 1012.5 |
| 20260906132703 | 68 | 157 | 1.7 | 3.5 | 0.00 | 0.00 | 0.00 | 93 | 1012.8 |
| 20260906131803 | 68 | 90 | 3.5 | 7.8 | 0.00 | 0.00 | 0.00 | 93 | 1012.4 |
| 20260906130903 | 68 | 78 | 4.3 | 7.8 | 0.00 | 0.00 | 0.00 | 93 | 1012.2 |
| 20260906130003 | 68 | 70 | 2.6 | 6.1 | 0.00 | 0.00 | 0.00 | 93 | 1012.4 |
| 20260906125403 | 67 | 81 | 1.7 | 3.5 | 0.00 | 0.00 | 0.00 | 93 | 1012.6 |
| 20260906124503 | 68 | 126 | 2.6 | 4.3 | 0.00 | 0.00 | 0.00 | 92 | 1013.0 |
| 20260906123603 | 68 | 77 | 1.7 | 2.6 | 0.00 | 0.00 | 0.00 | 92 | 1012.8 |
| 20260906122724 | 68 | 241 | 0.9 | 2.6 | 0.00 | 0.00 | 0.00 | 92 | 1012.8 |
| 20260906121803 | 68 | 122 | 4.3 | 8.7 | 0.00 | 0.00 | 0.00 | 92 | 1012.9 |
| 20260906120903 | 68 | 114 | 5.2 | 7.8 | 0.00 | 0.00 | 0.00 | 92 | 1012.7 |
| 20260906120003 | 68 | 115 | 3.5 | 7.0 | 0.00 | 0.00 | 0.00 | 92 | 1012.9 |
| 20260906115403 | 68 | 109 | 4.3 | 9.6 | 0.00 | 0.00 | 0.00 | 92 | 1012.8 |
| 20260906114503 | 68 | 110 | 5.2 | 9.6 | 0.00 | 0.00 | 0.00 | 92 | 1012.6 |
| 20260906113603 | 67 | 105 | 5.2 | 8.7 | 0.00 | 0.00 | 0.00 | 93 | 1012.5 |
| 20260906112703 | 67 | 111 | 6.1 | 8.7 | 0.00 | 0.00 | 0.00 | 93 | 1012.4 |
| 20260906111803 | 67 | 114 | 5.2 | 7.8 | 0.00 | 0.00 | 0.00 | 93 | 1012.6 |
| 20260906110903 | 67 | 119 | 4.3 | 7.0 | 0.00 | 0.00 | 0.00 | 93 | 1012.6 |
| 20260906110003 | 67 | 125 | 4.3 | 7.0 | 0.00 | 0.00 | 0.00 | 92 | 1012.6 |
| 20260906105403 | 67 | 125 | 4.3 | 7.0 | 0.00 | 0.00 | 0.00 | 92 | 1012.6 |
| 20260906104524 | 67 | 120 | 5.2 | 7.8 | 0.00 | 0.00 | 0.00 | 92 | 1012.6 |
| 20260906103603 | 67 | 120 | 6.1 | 9.6 | 0.00 | 0.00 | 0.00 | 92 | 1012.7 |
| 20260906102703 | 67 | 107 | 7.0 | 10.4 | 0.00 | 0.00 | 0.00 | 92 | 1012.6 |
| 20260906101803 | 67 | 109 | 6.1 | 9.6 | 0.00 | 0.00 | 0.00 | 93 | 1012.6 |
| 20260906100903 | 67 | 111 | 6.1 | 8.7 | 0.00 | 0.00 | 0.00 | 93 | 1012.7 |
| 20260906100003 | 67 | 117 | 6.1 | 9.6 | 0.00 | 0.00 | 0.00 | 92 | 1012.7 |
| 20260906095403 | 67 | 117 | 6.1 | 9.6 | 0.00 | 0.00 | 0.00 | 93 | 1012.8 |
| 20260906094503 | 67 | 111 | 6.1 | 9.6 | 0.00 | 0.00 | 0.00 | 92 | 1012.7 |
| 20260906093603 | 67 | 118 | 6.1 | 9.6 | 0.00 | 0.00 | 0.00 | 92 | 1012.8 |
| 20260906092706 | 68 | 118 | 5.2 | 8.7 | 0.00 | 0.00 | 0.00 | 92 | 1012.8 |
| 20260906091804 | 68 | 112 | 6.1 | 9.6 | 0.00 | 0.00 | 0.00 | 92 | 1012.6 |
| 20260906090904 | 68 | 110 | 6.1 | 9.6 | 0.00 | 0.00 | 0.00 | 92 | 1012.6 |
| 20260906090004 | 67 | 114 | 4.3 | 9.6 | 0.00 | 0.00 | 0.00 | 92 | 1012.8 |
| 20260906085404 | 67 | 113 | 5.2 | 8.7 | 0.00 | 0.00 | 0.00 | 92 | 1012.8 |
| 20260906084504 | 67 | 105 | 6.1 | 8.7 | 0.00 | 0.00 | 0.00 | 92 | 1012.8 |
| 20260906083604 | 67 | 96 | 6.1 | 9.6 | 0.00 | 0.00 | 0.00 | 92 | 1012.7 |
| 20260906082725 | 67 | 93 | 4.3 | 9.6 | 0.00 | 0.00 | 0.00 | 92 | 1012.7 |
| 20260906081825 | 67 | 88 | 5.2 | 11.3 | 0.00 | 0.00 | 0.00 | 92 | 1012.7 |
| 20260906080904 | 67 | 82 | 6.1 | 11.3 | 0.00 | 0.00 | 0.00 | 92 | 1012.6 |
| 20260906080004 | 67 | 85 | 6.1 | 12.2 | 0.00 | 0.00 | 0.00 | 92 | 1012.6 |
| 20260906075404 | 67 | 84 | 6.1 | 10.4 | 0.00 | 0.00 | 0.00 | 92 | 1012.5 |
| 20260906074525 | 67 | 84 | 5.2 | 11.3 | 0.00 | 0.00 | 0.00 | 91 | 1012.6 |
| 20260906073604 | 68 | 85 | 6.1 | 11.3 | 0.00 | 0.00 | 0.00 | 91 | 1012.6 |
| 20260906072704 | 68 | 87 | 5.2 | 10.4 | 0.00 | 0.00 | 0.00 | 91 | 1012.7 |
| 20260906071804 | 68 | 84 | 6.1 | 12.2 | 0.00 | 0.00 | 0.00 | 91 | 1012.6 |
| 20260906070904 | 68 | 90 | 6.1 | 11.3 | 0.00 | 0.00 | 0.00 | 90 | 1012.5 |
| 20260906070004 | 69 | 91 | 6.1 | 12.2 | 0.00 | 0.00 | 0.00 | 90 | 1012.7 |
| 20260906065404 | 69 | 95 | 5.2 | 12.2 | 0.00 | 0.00 | 0.00 | 90 | 1012.8 |
| 20260906064504 | 69 | 100 | 7.0 | 12.2 | 0.00 | 0.00 | 0.00 | 90 | 1012.7 |
| 20260906063604 | 68 | 107 | 7.0 | 11.3 | 0.00 | 0.00 | 0.00 | 90 | 1012.9 |
| 20260906062704 | 69 | 99 | 7.0 | 12.2 | 0.00 | 0.00 | 0.00 | 90 | 1012.8 |
| 20260906061804 | 69 | 96 | 6.1 | 11.3 | 0.00 | 0.00 | 0.00 | 90 | 1012.6 |
| 20260906060925 | 69 | 100 | 6.1 | 10.4 | 0.00 | 0.00 | 0.00 | 89 | 1012.6 |
| 20260906060025 | 69 | 90 | 5.2 | 10.4 | 0.00 | 0.00 | 0.00 | 89 | 1012.8 |
| 20260906055404 | 70 | 90 | 5.2 | 9.6 | 0.00 | 0.00 | 0.00 | 88 | 1012.9 |
| 20260906054504 | 70 | 97 | 5.2 | 11.3 | 0.00 | 0.00 | 0.00 | 88 | 1013.0 |
| 20260906053604 | 70 | 93 | 5.2 | 11.3 | 0.00 | 0.00 | 0.00 | 87 | 1013.0 |
| 20260906052704 | 70 | 91 | 6.1 | 11.3 | 0.00 | 0.00 | 0.00 | 87 | 1012.9 |
| 20260906051804 | 70 | 91 | 6.1 | 11.3 | 0.00 | 0.00 | 0.00 | 87 | 1012.8 |
| 20260906050904 | 70 | 89 | 6.1 | 10.4 | 0.00 | 0.00 | 0.00 | 87 | 1012.7 |
| 20260906050004 | 71 | 90 | 6.1 | 12.2 | 0.00 | 0.00 | 0.00 | 86 | 1012.8 |
| 20260906045405 | 71 | 89 | 6.1 | 10.4 | 0.00 | 0.00 | 0.00 | 86 | 1012.9 |
| 20260906044504 | 71 | 95 | 7.0 | 13.9 | 0.00 | 0.00 | 0.00 | 85 | 1012.8 |
| 20260906043603 | 71 | 89 | 7.8 | 13.9 | 0.00 | 0.00 | 0.00 | 85 | 1012.7 |
| 20260906042703 | 71 | 84 | 7.0 | 11.3 | 0.00 | 0.00 | 0.00 | 85 | 1012.6 |
| 20260906041804 | 72 | 86 | 6.1 | 11.3 | 0.00 | 0.00 | 0.00 | 84 | 1012.7 |
| 20260906040903 | 72 | 96 | 6.1 | 11.3 | 0.00 | 0.00 | 0.00 | 84 | 1012.9 |
| 20260906040004 | 72 | 95 | 6.1 | 11.3 | 0.00 | 0.00 | 0.00 | 84 | 1012.9 |
| 20260906035403 | 72 | 96 | 6.1 | 13.0 | 0.00 | 0.00 | 0.00 | 83 | 1012.7 |
| 20260906034503 | 73 | 100 | 6.1 | 12.2 | 0.00 | 0.00 | 0.00 | 82 | 1012.7 |
| 20260906033604 | 73 | 88 | 7.8 | 13.9 | 0.00 | 0.00 | 0.00 | 82 | 1012.6 |
| 20260906032703 | 73 | 76 | 7.0 | 15.6 | 0.00 | 0.00 | 0.00 | 82 | 1012.3 |
| 20260906031803 | 73 | 77 | 7.0 | 13.0 | 0.00 | 0.00 | 0.00 | 82 | 1012.3 |
| 20260906030903 | 73 | 67 | 7.0 | 13.0 | 0.00 | 0.00 | 0.00 | 82 | 1012.2 |
| 20260906030004 | 74 | 73 | 6.1 | 11.3 | 0.00 | 0.00 | 0.00 | 81 | 1012.4 |
| 20260906025403 | 73 | 75 | 5.2 | 11.3 | 0.00 | 0.00 | 0.00 | 82 | 1012.4 |
| 20260906024503 | 73 | 79 | 6.1 | 11.3 | 0.00 | 0.00 | 0.00 | 82 | 1012.3 |
| 20260906023603 | 74 | 83 | 6.1 | 11.3 | 0.00 | 0.00 | 0.00 | 82 | 1012.2 |
| 20260906022703 | 74 | 86 | 6.1 | 11.3 | 0.00 | 0.00 | 0.00 | 80 | 1012.0 |
| 20260906021803 | 75 | 88 | 4.3 | 10.4 | 0.00 | 0.00 | 0.00 | 79 | 1011.9 |
| 20260906020904 | 75 | 98 | 4.3 | 8.7 | 0.00 | 0.00 | 0.00 | 78 | 1011.8 |
| 20260906020003 | 76 | 103 | 6.1 | 8.7 | 0.00 | 0.00 | 0.00 | 76 | 1011.6 |
| 20260906015403 | 76 | 105 | 6.1 | 9.6 | 0.00 | 0.00 | 0.00 | 75 | 1011.6 |
| 20260906014524 | 76 | 109 | 6.1 | 9.6 | 0.00 | 0.00 | 0.00 | 74 | 1011.5 |
| 20260906013603 | 76 | 110 | 7.0 | 10.4 | 0.00 | 0.00 | 0.00 | 73 | 1011.4 |
| 20260906012724 | 77 | 107 | 6.1 | 10.4 | 0.00 | 0.00 | 0.00 | 71 | 1011.4 |
| 20260906011803 | 78 | 99 | 5.2 | 8.7 | 0.00 | 0.00 | 0.00 | 70 | 1011.3 |
| 20260906010905 | 79 | 92 | 4.3 | 8.7 | 0.00 | 0.00 | 0.00 | 68 | 1011.3 |
| 20260906010003 | 80 | 101 | 5.2 | 8.7 | 0.00 | 0.00 | 0.00 | 67 | 1011.2 |
| 20260906005403 | 81 | 104 | 5.2 | 8.7 | 0.00 | 0.00 | 0.00 | 66 | 1011.2 |
| 20260906004503 | 82 | 112 | 6.1 | 10.4 | 0.00 | 0.00 | 0.00 | 64 | 1011.2 |
| 20260906003603 | 82 | 115 | 6.1 | 11.3 | 0.00 | 0.00 | 0.00 | 65 | 1011.3 |
| 20260906002703 | 83 | 118 | 7.0 | 12.2 | 0.00 | 0.00 | 0.00 | 67 | 1011.5 |
| 20260906001804 | 83 | 117 | 8.7 | 16.5 | 0.00 | 0.00 | 0.00 | 67 | 1011.6 |
| 20260906000904 | 83 | 120 | 10.4 | 16.5 | 0.00 | 0.00 | 0.00 | 67 | 1011.7 |
| 20260906000025 | 83 | 111 | 10.4 | 18.2 | 0.00 | 0.00 | 0.00 | 69 | 1011.8 |
| 20260905235425 | 82 | 110 | 10.4 | 18.2 | 0.00 | 0.00 | 0.00 | 69 | 1011.8 |
| 20260905234504 | 83 | 111 | 12.2 | 20.0 | 0.00 | 0.00 | 0.00 | 68 | 1011.9 |
| 20260905233604 | 84 | 114 | 12.2 | 21.7 | 0.00 | 0.00 | 0.00 | 67 | 1011.9 |
| 20260905232704 | 85 | 108 | 11.3 | 21.7 | 0.00 | 0.00 | 0.00 | 64 | 1011.8 |
| 20260905231804 | 88 | 107 | 10.4 | 18.2 | 0.00 | 0.00 | 0.00 | 60 | 1011.6 |
| 20260905230905 | 90 | 113 | 10.4 | 18.2 | 0.00 | 0.00 | 0.00 | 50 | 1011.2 |
| 20260905230004 | 90 | 114 | 10.4 | 18.2 | 0.00 | 0.00 | 0.00 | 50 | 1011.1 |
| 20260905225404 | 90 | 117 | 9.6 | 18.2 | 0.00 | 0.00 | 0.00 | 50 | 1011.0 |
| 20260905224505 | 91 | 111 | 9.6 | 15.6 | 0.00 | 0.00 | 0.00 | 51 | 1011.0 |
| 20260905223625 | 91 | 105 | 8.7 | 15.6 | 0.00 | 0.00 | 0.00 | 50 | 1010.5 |
| 20260905222704 | 92 | 110 | 7.8 | 13.9 | 0.00 | 0.00 | 0.00 | 50 | 1010.1 |
| 20260905221804 | 92 | 118 | 8.7 | 16.5 | 0.00 | 0.00 | 0.00 | 48 | 1009.9 |
| 20260905220925 | 92 | 124 | 6.1 | 11.3 | 0.00 | 0.00 | 0.00 | 48 | 1010.0 |
| 20260905220004 | 92 | 130 | 7.0 | 12.2 | 0.00 | 0.00 | 0.00 | 47 | 1010.2 |
| 20260905215404 | 93 | 124 | 7.0 | 12.2 | 0.00 | 0.00 | 0.00 | 46 | 1010.4 |
| 20260905214525 | 93 | 129 | 7.0 | 11.3 | 0.00 | 0.00 | 0.00 | 48 | 1010.6 |
| 20260905213604 | 93 | 147 | 6.1 | 11.3 | 0.00 | 0.00 | 0.00 | 45 | 1010.7 |
| 20260905212704 | 93 | 136 | 7.0 | 14.8 | 0.00 | 0.00 | 0.00 | 43 | 1010.6 |
| 20260905211804 | 93 | 141 | 7.0 | 13.0 | 0.00 | 0.00 | 0.00 | 45 | 1010.7 |